{"data":{"norad_id":48688,"intl_designator":"2021-044BC","name":"STARLINK-2742","alt_names":[],"object_type":"PAYLOAD","status":"ACTIVE","operator":null,"country":"US","launch_date":"2021-05-26","launch_site_code":"AFETR","launch_vehicle":null,"mission":null,"orbit_class":"UNKNOWN","rcs_meters":null,"size_class":null,"mass_kg":null,"dimensions":null,"purposes":["comms"],"wikipedia_slug":null,"has_3d_model":false,"image_url":null,"decayed_at":null,"tle_current":{"epoch":"2026-05-25T01:08:47.277024Z","epoch_age_seconds":81214,"freshness":"FRESH","line1":"1 48688U 21044BC  26145.04776941  .00004070  00000+0  14279-3 0  9997","line2":"2 48688  53.1609  70.0380 0001411  96.9850 263.1312 15.31712557276192","mean_motion":15.31712557,"eccentricity":0.0001411,"inclination_deg":53.1609,"raan_deg":70.038,"arg_perigee_deg":96.985,"mean_anomaly_deg":263.1312,"bstar":0.00014279,"rev_number":27619,"period_min":94.012417239718,"perigee_km":469.73619245534,"apogee_km":471.66893498022,"semimajor_km":6848.8395637178,"source":"CELESTRAK","updated_at":"2026-05-25T13:38:16.762180Z"}}}